GW5308 Weather Reports


time (UTC)temp
C
wind
direction
speed
KPH
gust
KPH
rain 1hr
cm
rain 24hr
cm
rain mn
cm
humidity
%
barometer
mb
20260506174533 32 304 1.6 8.0 0.00 0.00 0.00 49 1015.8
20260506174017 32 117 1.6 8.0 0.00 0.00 0.00 50 1015.8
20260506173513 32 178 0.0 6.4 0.00 0.00 0.00 51 1015.7
20260506173032 32 31 1.6 6.4 0.00 0.00 0.00 51 1015.7
20260506172514 32 127 1.6 6.4 0.00 0.00 0.00 52 1015.7
20260506172014 32 0 0.0 6.4 0.00 0.00 0.00 53 1015.8
20260506171540 32 37 0.0 6.4 0.00 0.00 0.00 55 1015.8
20260506171015 31 234 0.0 6.4 0.00 0.00 0.00 55 1015.9
20260506170514 31 11 0.0 4.8 0.00 0.00 0.00 55 1016.0
20260506170043 31 0 1.6 4.8 0.00 0.00 0.00 55 1016.1
20260506165514 31 0 0.0 4.8 0.00 0.00 0.00 55 1016.2
20260506165014 31 257 1.6 4.8 0.00 0.00 0.00 56 1016.4
20260506164539 31 226 0.0 3.2 0.00 0.00 0.00 57 1016.4
20260506164014 31 215 0.0 3.2 0.00 0.00 0.00 55 1016.4
20260506163518 31 242 1.6 3.2 0.00 0.00 0.00 52 1016.6
20260506163033 31 0 0.0 3.2 0.00 0.00 0.00 56 1016.6
20260506162513 31 229 0.0 3.2 0.00 0.00 0.00 59 1016.7
20260506162019 30 221 0.0 6.4 0.00 0.00 0.00 59 1016.7
20260506161539 31 241 1.6 6.4 0.00 0.00 0.00 59 1016.7
20260506161016 31 0 0.0 3.2 0.00 0.00 0.00 58 1016.8
20260506160518 30 165 0.0 3.2 0.00 0.00 0.00 60 1016.8
20260506160042 30 234 0.0 3.2 0.00 0.00 0.00 61 1016.7
20260506155516 30 226 0.0 4.8 0.00 0.00 0.00 63 1016.7
20260506155014 30 293 1.6 4.8 0.00 0.00 0.00 62 1016.7
20260506154533 30 155 1.6 6.4 0.00 0.00 0.00 60 1016.7
20260506154016 30 0 0.0 6.4 0.00 0.00 0.00 65 1016.7
20260506153517 30 257 0.0 4.8 0.00 0.00 0.00 62 1016.8
20260506153034 30 241 0.0 3.2 0.00 0.00 0.00 65 1016.8
20260506152514 29 258 1.6 4.8 0.00 0.00 0.00 67 1016.7
20260506152015 29 251 0.0 4.8 0.00 0.00 0.00 65 1016.7
20260506151545 29 259 0.0 4.8 0.00 0.00 0.00 65 1016.7
20260506151015 29 274 1.6 4.8 0.00 0.00 0.00 66 1016.6
20260506150519 28 230 0.0 4.8 0.00 0.00 0.00 66 1016.6
20260506150034 28 217 1.6 4.8 0.00 0.00 0.00 67 1016.5
20260506145516 28 209 0.0 4.8 0.00 0.00 0.00 67 1016.6
20260506145019 28 263 1.6 4.8 0.00 0.00 0.00 70 1016.5
20260506144534 28 269 0.0 4.8 0.00 0.00 0.00 69 1016.5
20260506144025 28 233 1.6 6.4 0.00 0.00 0.00 70 1016.7
20260506143519 28 0 0.0 6.4 0.00 0.00 0.00 69 1016.6
20260506143043 27 218 1.6 4.8 0.00 0.00 0.00 71 1016.5
20260506142514 27 255 0.0 4.8 0.00 0.00 0.00 73 1016.5
20260506142014 28 115 0.0 3.2 0.00 0.00 0.00 72 1016.5
20260506141532 28 257 0.0 3.2 0.00 0.00 0.00 71 1016.5
20260506141014 27 0 0.0 4.8 0.00 0.00 0.00 74 1016.4
20260506140516 27 0 0.0 4.8 0.00 0.00 0.00 74 1016.4
20260506140038 27 0 1.6 4.8 0.00 0.00 0.00 75 1016.4
20260506135515 27 0 0.0 4.8 0.00 0.00 0.00 78 1016.4
20260506135020 26 258 0.0 4.8 0.00 0.00 0.00 80 1016.4
20260506134534 26 267 0.0 4.8 0.00 0.00 0.00 80 1016.4
20260506134017 26 255 0.0 4.8 0.00 0.00 0.00 81 1016.3
20260506133515 26 37 0.0 4.8 0.00 0.00 0.00 81 1016.3
20260506133034 25 266 0.0 4.8 0.00 0.00 0.00 82 1016.2
20260506132520 25 0 0.0 3.2 0.00 0.00 0.00 84 1016.2
20260506132016 25 0 0.0 3.2 0.00 0.00 0.00 85 1016.2
20260506131533 24 0 0.0 4.8 0.00 0.00 0.00 87 1016.1
20260506131017 23 235 0.0 4.8 0.00 0.00 0.00 88 1016.1
20260506130519 23 0 0.0 3.2 0.00 0.00 0.00 91 1016.1
20260506130033 22 0 0.0 3.2 0.00 0.00 0.00 93 1016.2
20260506125516 22 0 0.0 3.2 0.00 0.00 0.00 95 1016.2
20260506125018 21 0 0.0 3.2 0.00 0.00 0.00 98 1016.2
20260506124531 20 0 0.0 0.0 0.00 0.00 0.00 100 1016.2
20260506124015 20 0 0.0 0.0 0.00 0.00 0.00 100 1016.2
20260506123515 18 0 0.0 0.0 0.00 0.00 0.00 100 1016.1
20260506123034 18 0 0.0 0.0 0.00 0.00 0.00 100 1016.1
20260506122514 18 0 0.0 0.0 0.00 0.00 0.00 100 1016.1
20260506122014 18 0 0.0 0.0 0.00 0.00 0.00 100 1016.0
20260506121534 17 0 0.0 0.0 0.00 0.00 0.00 100 1015.9
20260506121015 17 0 0.0 0.0 0.00 0.00 0.00 100 1015.9
20260506120518 17 0 0.0 0.0 0.00 0.00 0.00 100 1016.0
20260506120033 16 0 0.0 0.0 0.00 0.00 0.00 100 1015.9
20260506115515 16 0 0.0 0.0 0.00 0.00 0.00 100 1015.8
20260506115017 16 0 0.0 0.0 0.00 0.00 0.00 100 1015.9
20260506114541 15 0 0.0 0.0 0.00 0.00 0.00 100 1015.8
20260506114014 15 0 0.0 0.0 0.00 0.00 0.00 100 1015.8
20260506113515 15 0 0.0 0.0 0.00 0.00 0.00 100 1015.7
20260506113032 15 0 0.0 0.0 0.00 0.00 0.00 100 1015.7
20260506112516 14 0 0.0 0.0 0.00 0.00 0.00 100 1015.6
20260506112015 14 0 0.0 0.0 0.00 0.00 0.00 100 1015.6
20260506111534 14 0 0.0 0.0 0.00 0.00 0.00 100 1015.5
20260506111015 13 0 0.0 0.0 0.00 0.00 0.00 100 1015.4
20260506110520 13 0 0.0 0.0 0.00 0.00 0.00 100 1015.3
20260506110037 13 0 0.0 0.0 0.00 0.00 0.00 100 1015.4
20260506105515 13 0 0.0 0.0 0.00 0.00 0.00 100 1015.3
20260506105015 13 0 0.0 0.0 0.00 0.00 0.00 100 1015.2
20260506104534 13 0 0.0 0.0 0.00 0.00 0.00 100 1015.1
20260506104013 13 0 0.0 0.0 0.00 0.00 0.00 100 1015.1
20260506103514 13 0 0.0 0.0 0.00 0.00 0.00 100 1015.1
20260506103034 13 0 0.0 0.0 0.00 0.00 0.00 100 1015.0
20260506102514 13 0 0.0 0.0 0.00 0.00 0.00 100 1015.1
20260506102016 13 0 0.0 0.0 0.00 0.00 0.00 100 1015.1
20260506101547 13 0 0.0 0.0 0.00 0.00 0.00 100 1015.0
20260506101016 13 0 0.0 0.0 0.00 0.00 0.00 100 1014.9
20260506100518 13 0 0.0 0.0 0.00 0.00 0.00 100 1014.9
20260506100032 13 0 0.0 0.0 0.00 0.00 0.00 100 1015.0
20260506095515 13 0 0.0 0.0 0.00 0.00 0.00 100 1014.9
20260506095015 13 0 0.0 0.0 0.00 0.00 0.00 100 1014.9
20260506094540 13 0 0.0 0.0 0.00 0.00 0.00 100 1015.0
20260506094017 13 0 0.0 0.0 0.00 0.00 0.00 100 1014.9
20260506093515 13 0 0.0 0.0 0.00 0.00 0.00 100 1015.0
20260506093035 13 0 0.0 0.0 0.00 0.00 0.00 100 1014.9
20260506092516 13 0 0.0 0.0 0.00 0.00 0.00 100 1014.9
20260506092019 13 0 0.0 0.0 0.00 0.00 0.00 100 1014.9
20260506091533 13 0 0.0 0.0 0.00 0.00 0.00 100 1015.0
20260506091014 13 0 0.0 0.0 0.00 0.00 0.00 100 1014.7
20260506090515 13 0 0.0 0.0 0.00 0.00 0.00 100 1014.7
20260506090036 13 0 0.0 0.0 0.00 0.00 0.00 100 1014.7
20260506085515 13 0 0.0 0.0 0.00 0.00 0.00 99 1014.7
20260506085014 13 0 0.0 0.0 0.00 0.00 0.00 100 1014.7
20260506084533 13 0 0.0 0.0 0.00 0.00 0.00 100 1014.6
20260506084016 13 0 0.0 0.0 0.00 0.00 0.00 100 1014.7
20260506083517 13 0 0.0 0.0 0.00 0.00 0.00 99 1014.6
20260506083032 13 0 0.0 0.0 0.00 0.00 0.00 99 1014.6
20260506082516 13 0 0.0 0.0 0.00 0.00 0.00 100 1014.7
20260506082018 13 0 0.0 0.0 0.00 0.00 0.00 99 1014.8
20260506081531 13 0 0.0 0.0 0.00 0.00 0.00 100 1014.9
20260506081018 13 0 0.0 0.0 0.00 0.00 0.00 100 1014.9
20260506080520 13 0 0.0 0.0 0.00 0.00 0.00 99 1014.8
20260506073516 13 0 0.0 0.0 0.00 0.00 0.00 99 1014.6
20260506073041 13 0 0.0 0.0 0.00 0.00 0.00 99 1014.9
20260506072518 13 0 0.0 0.0 0.00 0.00 0.00 99 1014.9
20260506072017 13 0 0.0 0.0 0.00 0.00 0.00 99 1015.0
20260506071533 13 0 0.0 0.0 0.00 0.00 0.00 99 1014.9
20260506071016 13 0 0.0 0.0 0.00 0.00 0.00 99 1014.8
20260506070515 13 0 0.0 0.0 0.00 0.00 0.00 99 1014.9
20260506062017 14 0 0.0 0.0 0.00 0.00 0.00 98 1015.2
20260506061535 14 0 0.0 0.0 0.00 0.00 0.00 98 1015.4
20260506061019 14 0 0.0 0.0 0.00 0.00 0.00 98 1015.4
20260506060514 14 0 0.0 0.0 0.00 0.00 0.00 97 1015.4
20260506051017 15 0 0.0 0.0 0.00 0.00 0.00 97 1015.8
20260506050521 14 0 0.0 0.0 0.00 0.00 0.00 96 1015.8
20260506045014 15 0 0.0 0.0 0.00 0.00 0.00 95 1016.1
20260506044535 15 0 0.0 0.0 0.00 0.00 0.00 95 1016.1
20260506044021 15 0 0.0 0.0 0.00 0.00 0.00 95 1016.2
20260506043516 15 0 0.0 0.0 0.00 0.00 0.00 95 1016.3
20260506043034 15 0 0.0 0.0 0.00 0.00 0.00 95 1016.2
20260506042515 15 0 0.0 0.0 0.00 0.00 0.00 95 1016.1
20260506042022 15 0 0.0 0.0 0.00 0.00 0.00 95 1016.2
20260506041542 15 0 0.0 0.0 0.00 0.00 0.00 94 1016.2
20260506041017 15 0 0.0 0.0 0.00 0.00 0.00 94 1016.1
20260506040522 15 0 0.0 0.0 0.00 0.00 0.00 93 1016.1
20260506040031 15 0 0.0 0.0 0.00 0.00 0.00 93 1015.9
20260506035518 16 0 0.0 0.0 0.00 0.00 0.00 93 1016.0
20260506035016 16 0 0.0 0.0 0.00 0.00 0.00 92 1015.8
20260506034536 16 0 0.0 0.0 0.00 0.00 0.00 92 1015.8
20260506034014 16 0 0.0 0.0 0.00 0.00 0.00 92 1015.8
20260506033515 16 0 0.0 0.0 0.00 0.00 0.00 91 1015.7
20260506033035 16 0 0.0 0.0 0.00 0.00 0.00 92 1015.6
20260506032518 16 0 0.0 0.0 0.00 0.00 0.00 92 1015.5
20260506032014 16 0 0.0 0.0 0.00 0.00 0.00 92 1015.5
20260506031532 16 0 0.0 0.0 0.00 0.00 0.00 91 1015.4
20260506031016 16 0 0.0 0.0 0.00 0.00 0.00 90 1015.3
20260506030517 16 0 0.0 0.0 0.00 0.00 0.00 91 1015.3
20260506030034 16 0 0.0 0.0 0.00 0.00 0.00 91 1015.2
20260506025515 16 0 0.0 0.0 0.00 0.00 0.00 91 1015.2
20260506025015 16 0 0.0 0.0 0.00 0.00 0.00 90 1015.2
20260506024535 16 0 0.0 0.0 0.00 0.00 0.00 90 1015.2
20260506024014 16 0 0.0 0.0 0.00 0.00 0.00 89 1015.3
20260506023516 16 0 0.0 0.0 0.00 0.00 0.00 88 1015.2
20260506023033 16 0 0.0 0.0 0.00 0.00 0.00 89 1015.2
20260506022517 16 0 0.0 0.0 0.00 0.00 0.00 88 1015.2
20260506022014 16 0 0.0 0.0 0.00 0.00 0.00 88 1015.3
20260506021534 17 0 0.0 0.0 0.00 0.00 0.00 87 1015.3
20260506021016 17 0 0.0 0.0 0.00 0.00 0.00 86 1015.4
20260506020515 17 0 0.0 0.0 0.00 0.00 0.00 85 1015.4
20260506020032 17 0 0.0 0.0 0.00 0.00 0.00 85 1015.3
20260506015515 17 0 0.0 0.0 0.00 0.00 0.00 84 1015.3
20260506015017 17 0 0.0 0.0 0.00 0.00 0.00 84 1015.2
20260506014544 18 0 0.0 0.0 0.00 0.00 0.00 82 1015.2
20260506014013 18 0 0.0 0.0 0.00 0.00 0.00 83 1015.1
20260506013513 18 0 0.0 0.0 0.00 0.00 0.00 80 1015.2
20260506013032 18 0 0.0 0.0 0.00 0.00 0.00 80 1015.1
20260506012513 18 0 0.0 0.0 0.00 0.00 0.00 79 1015.1
20260506012014 19 0 0.0 0.0 0.00 0.00 0.00 78 1015.2
20260506011534 19 0 0.0 0.0 0.00 0.00 0.00 77 1015.2
20260506011015 20 0 0.0 0.0 0.00 0.00 0.00 77 1015.2
20260506010513 20 0 0.0 0.0 0.00 0.00 0.00 76 1015.1
20260506010031 20 0 0.0 0.0 0.00 0.00 0.00 75 1015.1
20260506005513 20 0 0.0 0.0 0.00 0.00 0.00 74 1015.0
20260506005015 21 0 0.0 0.0 0.00 0.00 0.00 72 1014.9
20260506004538 21 0 0.0 0.0 0.00 0.00 0.00 71 1014.9
20260506004013 21 0 0.0 0.0 0.00 0.00 0.00 70 1014.9
20260506003517 21 0 0.0 1.6 0.00 0.00 0.00 70 1014.7
20260506003030 21 0 0.0 1.6 0.00 0.00 0.00 69 1014.7
20260506002513 22 0 0.0 1.6 0.00 0.00 0.00 69 1014.6
20260506002015 22 0 0.0 1.6 0.00 0.00 0.00 68 1014.6
20260506001534 22 0 0.0 1.6 0.00 0.00 0.00 67 1014.5
20260506001011 22 0 0.0 1.6 0.00 0.00 0.00 67 1014.6
20260506000514 22 0 0.0 1.6 0.00 0.00 0.00 66 1014.5
20260506000040 22 277 0.0 1.6 0.00 0.00 0.00 66 1014.5
20260505235515 23 0 0.0 1.6 0.00 0.00 0.00 65 1014.5
20260505235013 23 0 0.0 3.2 0.00 0.00 0.00 64 1014.3
20260505234536 23 0 0.0 3.2 0.00 0.00 0.00 64 1014.3
20260505234014 23 350 0.0 9.7 0.00 0.00 0.00 63 1014.2
20260505233516 23 0 0.0 9.7 0.00 0.00 0.00 62 1014.4
20260505233033 23 0 0.0 9.7 0.00 0.00 0.00 62 1014.3
20260505232514 24 167 1.6 6.4 0.00 0.00 0.00 61 1014.2
20260505232015 24 279 1.6 8.0 0.00 0.00 0.00 61 1014.2
20260505231531 24 309 1.6 8.0 0.00 0.00 0.00 60 1014.3
20260505231011 24 356 1.6 11.3 0.00 0.00 0.00 60 1014.2
20260505230516 25 317 1.6 11.3 0.00 0.00 0.00 60 1014.2
20260505230034 25 297 1.6 8.0 0.00 0.00 0.00 59 1014.3
20260505225513 25 4 1.6 8.0 0.00 0.00 0.00 58 1014.2
20260505225013 25 259 0.0 6.4 0.00 0.00 0.00 58 1014.3
20260505224537 25 40 1.6 6.4 0.00 0.00 0.00 58 1014.3
20260505224013 25 319 1.6 6.4 0.00 0.00 0.00 57 1014.4
20260505223517 26 4 1.6 6.4 0.00 0.00 0.00 57 1014.3
20260505223456 26 46 0.0 9.7 0.00 0.00 0.00 57 1014.2
20260505221532 26 5 0.0 8.0 0.00 0.00 0.00 56 1014.1
20260505221015 26 343 1.6 9.7 0.00 0.00 0.00 56 1014.3
20260505220514 26 18 1.6 9.7 0.00 0.00 0.00 55 1014.3
20260505220041 26 9 3.2 11.3 0.00 0.00 0.00 55 1014.4
20260505215516 27 321 1.6 11.3 0.00 0.00 0.00 56 1014.3
20260505215014 27 23 3.2 9.7 0.00 0.00 0.00 54 1014.2
20260505214554 27 316 1.6 9.7 0.00 0.00 0.00 55 1014.2
20260505214015 27 46 1.6 9.7 0.00 0.00 0.00 54 1014.3
20260505213514 27 30 3.2 9.7 0.00 0.00 0.00 54 1014.3
20260505213050 27 53 3.2 9.7 0.00 0.00 0.00 54 1014.2
20260505212514 27 288 3.2 9.7 0.00 0.00 0.00 55 1014.3
20260505212016 27 356 3.2 8.0 0.00 0.00 0.00 54 1014.3
20260505211535 27 341 3.2 9.7 0.00 0.00 0.00 55 1014.2
20260505211014 27 267 3.2 11.3 0.00 0.00 0.00 55 1014.2
20260505210516 28 297 1.6 11.3 0.00 0.00 0.00 55 1014.2
20260505210032 27 1 1.6 11.3 0.00 0.00 0.00 55 1014.3
20260505205519 27 297 3.2 11.3 0.00 0.00 0.00 55 1014.3
20260505205021 27 240 1.6 12.9 0.00 0.00 0.00 55 1014.2
20260505204536 27 299 4.8 12.9 0.00 0.00 0.00 55 1014.1
20260505204015 28 338 1.6 8.0 0.00 0.00 0.00 54 1014.2
20260505203514 28 354 3.2 8.0 0.00 0.00 0.00 55 1014.2
20260505203044 28 0 0.0 6.4 0.00 0.00 0.00 56 1014.2
20260505202515 28 4 1.6 6.4 0.00 0.00 0.00 56 1014.3
20260505202016 28 67 0.0 8.0 0.00 0.00 0.00 56 1014.4
20260505201547 27 330 1.6 8.0 0.00 0.00 0.00 56 1014.5
20260505201014 27 98 3.2 8.0 0.00 0.00 0.00 55 1014.4
20260505200515 28 245 1.6 9.7 0.00 0.00 0.00 55 1014.6
20260505200033 27 82 3.2 9.7 0.00 0.00 0.00 58 1014.6
20260505195514 27 298 0.0 8.0 0.00 0.00 0.00 59 1014.7
20260505195015 27 0 1.6 8.0 0.00 0.00 0.00 58 1014.7
20260505194536 27 20 1.6 8.0 0.00 0.00 0.00 57 1014.6
20260505194018 27 8 1.6 8.0 0.00 0.00 0.00 58 1014.9
20260505193513 27 297 1.6 8.0 0.00 0.00 0.00 58 1014.9
20260505193044 26 292 1.6 4.8 0.00 0.00 0.00 58 1014.9
20260505192516 27 96 1.6 6.4 0.00 0.00 0.00 58 1014.8
20260505192015 27 6 1.6 6.4 0.00 0.00 0.00 57 1014.8
20260505191541 27 20 1.6 6.4 0.00 0.00 0.00 56 1014.9
20260505191018 27 312 0.0 9.7 0.00 0.00 0.00 55 1014.9
20260505190514 27 25 0.0 9.7 0.00 0.00 0.00 56 1015.0
20260505190036 27 300 3.2 11.3 0.00 0.00 0.00 56 1015.2
20260505185520 27 349 3.2 11.3 0.00 0.00 0.00 55 1015.1
20260505185013 28 48 1.6 8.0 0.00 0.00 0.00 54 1015.2
20260505184534 28 11 1.6 8.0 0.00 0.00 0.00 53 1015.2
20260505184014 29 34 1.6 8.0 0.00 0.00 0.00 52 1015.1
20260505183514 29 73 1.6 6.4 0.00 0.00 0.00 52 1015.0
20260505183045 29 326 1.6 8.0 0.00 0.00 0.00 53 1015.1
20260505182516 29 290 1.6 9.7 0.00 0.00 0.00 53 1015.1
20260505182016 29 318 1.6 9.7 0.00 0.00 0.00 53 1015.2
20260505181533 28 66 3.2 8.0 0.00 0.00 0.00 53 1015.4
20260505181021 28 0 0.0 4.8 0.00 0.00 0.00 56 1015.3
20260505180514 28 0 0.0 4.8 0.00 0.00 0.00 55 1015.4
20260505180036 28 288 0.0 3.2 0.00 0.00 0.00 54 1015.6
20260505175515 28 338 0.0 3.2 0.00 0.00 0.00 54 1015.8
20260505175020 28 0 0.0 6.4 0.00 0.00 0.00 56 1015.6